EW3708 Weather Reports


time (UTC)temp
C
wind
direction
speed
KPH
gust
KPH
rain 1hr
cm
rain 24hr
cm
rain mn
cm
humidity
%
barometer
mb
20260502210019 10 313 3.2 8.0 0.00 0.71 0.58 43 1010.5
20260502204519 10 236 4.8 9.7 0.00 0.71 0.58 39 1010.6
20260502203018 11 285 4.8 9.7 0.00 0.71 0.58 39 1010.7
20260502201517 10 206 4.8 9.7 0.00 0.71 0.58 43 1010.7
20260502200018 11 292 3.2 8.0 0.00 0.71 0.58 41 1010.8
20260502194517 11 261 1.6 8.0 0.00 0.71 0.58 38 1010.9
20260502193016 11 227 3.2 14.5 0.00 0.71 0.58 38 1011.1
20260502191522 10 304 4.8 9.7 0.00 0.71 0.58 37 1011.3
20260502190016 10 285 3.2 11.3 0.00 0.71 0.58 38 1011.6
20260502184515 11 233 3.2 8.0 0.00 0.71 0.58 40 1011.7
20260502183013 11 317 3.2 9.7 0.00 0.71 0.58 43 1011.7
20260502181512 10 289 0.0 9.7 0.00 0.71 0.58 43 1011.8
20260502163007 10 355 3.2 11.3 0.00 0.71 0.58 49 1012.1
20260502161503 10 53 1.6 9.7 0.00 0.71 0.58 54 1012.0
20260502151603 7 304 3.2 8.0 0.00 0.71 0.58 57 1012.2
20260502150105 8 351 3.2 11.3 0.00 0.71 0.58 58 1012.2
20260502123056 3 292 1.6 4.8 0.00 0.71 0.58 90 1012.2
20260502121555 3 317 3.2 11.3 0.00 0.71 0.58 89 1012.2
20260502120107 3 294 1.6 4.8 0.00 0.71 0.58 92 1012.2
20260502114600 3 294 1.6 4.8 0.00 0.71 0.58 92 1012.3
20260502113053 3 286 1.6 3.2 0.00 0.71 0.58 92 1012.3
20260502111558 3 286 0.0 3.2 0.00 0.71 0.58 92 1012.4
20260502110051 2 286 0.0 4.8 0.00 0.71 0.58 91 1012.3
20260502104553 2 286 0.0 4.8 0.00 0.71 0.58 91 1012.3
20260502103048 2 286 1.6 4.8 0.00 0.71 0.58 91 1012.0
20260502101550 2 286 1.6 8.0 0.03 0.71 0.58 91 1011.7
20260502070026 6 198 0.0 0.0 0.10 0.66 0.53 93 1010.6
20260502064522 6 198 0.0 0.0 0.10 0.66 0.53 93 1010.8
20260502063021 6 198 0.0 0.0 0.10 0.64 0.51 93 1011.0
20260502061519 6 198 0.0 0.0 0.13 0.61 0.48 92 1011.3
20260502060017 6 198 0.0 3.2 0.18 0.56 0.43 92 1011.6
20260502054519 6 252 0.0 6.4 0.28 0.56 0.43 92 1011.7
20260502053014 6 155 0.0 3.2 0.33 0.53 0.41 92 1011.8
20260502051529 6 155 0.0 3.2 0.30 0.46 0.36 92 1011.9
20260502050010 6 247 0.0 3.2 0.25 0.38 0.25 93 1012.0
20260502044510 7 247 0.0 3.2 0.15 0.28 0.15 92 1012.1
20260502043006 7 247 0.0 1.6 0.08 0.20 0.08 92 1012.0
20260502041505 7 247 0.0 3.2 0.03 0.15 0.03 92 1011.9
20260502040003 7 247 1.6 3.2 0.03 0.13 0.00 92 1011.6
20260502034502 7 247 0.0 1.6 0.03 0.13 0.13 92 1011.4
20260502033002 7 247 0.0 1.6 0.03 0.13 0.13 92 1011.5
20260502031501 7 247 0.0 3.2 0.05 0.13 0.13 91 1011.4
20260502030103 7 247 0.0 1.6 0.03 0.10 0.10 91 1011.3
20260502024600 7 247 1.6 3.2 0.03 0.10 0.10 91 1011.3
20260502023100 7 280 0.0 0.0 0.03 0.10 0.10 91 1011.5
20260502021600 7 280 0.0 0.0 0.00 0.08 0.08 90 1011.8
20260502020109 7 280 0.0 0.0 0.03 0.08 0.08 90 1011.7
20260502014558 7 280 0.0 0.0 0.03 0.10 0.08 89 1011.7
20260502013102 7 280 0.0 1.6 0.03 0.10 0.08 88 1011.7
20260502011558 7 280 0.0 1.6 0.05 0.10 0.08 87 1011.6
20260502010058 8 280 0.0 1.6 0.05 0.08 0.05 87 1011.5
20260502004557 8 280 0.0 1.6 0.05 0.08 0.05 85 1011.4
20260502003055 8 280 0.0 1.6 0.05 0.08 0.05 82 1011.4
20260502001555 9 280 0.0 3.2 0.03 0.05 0.03 77 1011.3
20260502000054 10 280 1.6 4.8 0.00 0.03 0.00 68 1011.4
20260501234557 10 213 0.0 1.6 0.00 0.08 0.00 65 1010.9
20260501233058 10 213 0.0 3.2 0.00 0.08 0.00 62 1010.5
20260501231559 11 213 0.0 3.2 0.00 0.08 0.00 61 1010.4
20260501230055 11 213 0.0 1.6 0.00 0.08 0.00 60 1010.4
20260501224551 11 213 0.0 4.8 0.00 0.08 0.00 57 1010.4
20260501223050 11 194 1.6 3.2 0.00 0.08 0.00 57 1010.4
20260501221550 11 194 0.0 8.0 0.00 0.08 0.00 54 1010.3
20260501220050 12 216 3.2 12.9 0.00 0.08 0.00 52 1010.5
20260501214559 12 298 4.8 9.7 0.00 0.08 0.00 48 1010.2
20260501213054 12 249 1.6 4.8 0.00 0.08 0.00 45 1010.1
20260501211548 13 242 1.6 4.8 0.00 0.08 0.00 45 1009.9